contact:dominique.lefevre@mio.osupytheas.fr, maurice.libes@osupytheas.fr, didier.mallarino@osupytheas.fr
Project:EMSO http://www.emso-fr.org/EMSO-France
Depth: 2436.0 m
Title:EMSO Ligure Ouest : Data MII capteur MICROCAT
DateTime_Computer,Latitude,Longitude,Temperature,Conductivity,Pressure,DateTime_Instrument
DateTime_Computer,Latitude,Longitude,degC,S m-1,dbar,DateTime_Instrument
2021-05-12T00:01:56Z,42.805,6.029,13.2986,4.60011,2470.614,2021-5-12T02:03:06Z
2021-05-12T00:04:59Z,42.805,6.029,13.2993,4.60019,2470.577,2021-5-12T02:06:10Z
2021-05-12T00:08:02Z,42.805,6.029,13.2991,4.60009,2470.6,2021-5-12T02:09:13Z
2021-05-12T00:11:05Z,42.805,6.029,13.2987,4.60008,2470.6,2021-5-12T02:12:16Z
2021-05-12T00:14:08Z,42.805,6.029,13.2986,4.60003,2470.6,2021-5-12T02:15:19Z
2021-05-12T00:17:11Z,42.805,6.029,13.2989,4.60006,2470.624,2021-5-12T02:18:22Z
2021-05-12T00:20:14Z,42.805,6.029,13.2993,4.60005,2470.577,2021-5-12T02:21:25Z
2021-05-12T00:23:18Z,42.805,6.029,13.2993,4.60004,2470.61,2021-5-12T02:24:28Z
2021-05-12T00:26:21Z,42.805,6.029,13.2986,4.60019,2470.637,2021-5-12T02:27:31Z
2021-05-12T00:29:24Z,42.805,6.029,13.2994,4.60014,2470.6,2021-5-12T02:30:35Z
2021-05-12T00:32:27Z,42.805,6.029,13.2990,4.60011,2470.577,2021-5-12T02:33:38Z
2021-05-12T00:35:30Z,42.805,6.029,13.2989,4.60000,2470.6,2021-5-12T02:36:41Z
2021-05-12T00:38:33Z,42.805,6.029,13.2989,4.60006,2470.637,2021-5-12T02:39:44Z
2021-05-12T00:41:36Z,42.805,6.029,13.2982,4.60005,2470.6,2021-5-12T02:42:47Z
2021-05-12T00:44:39Z,42.805,6.029,13.2990,4.60006,2470.6,2021-5-12T02:45:50Z
2021-05-12T00:47:43Z,42.805,6.029,13.2983,4.60002,2470.6,2021-5-12T02:48:53Z
2021-05-12T00:50:46Z,42.805,6.029,13.2988,4.60005,2470.577,2021-5-12T02:51:56Z
2021-05-12T00:53:49Z,42.805,6.029,13.2988,4.60006,2470.591,2021-5-12T02:55:00Z
2021-05-12T00:56:52Z,42.805,6.029,13.2989,4.59999,2470.628,2021-5-12T02:58:03Z
2021-05-12T00:59:55Z,42.805,6.029,13.2986,4.60003,2470.637,2021-5-12T03:01:06Z
2021-05-12T01:02:58Z,42.805,6.029,13.2989,4.59997,2470.577,2021-5-12T03:04:09Z
2021-05-12T01:06:01Z,42.805,6.029,13.2986,4.60004,2470.577,2021-5-12T03:07:12Z
2021-05-12T01:09:04Z,42.805,6.029,13.2991,4.60009,2470.577,2021-5-12T03:10:15Z
2021-05-12T01:12:08Z,42.805,6.029,13.2986,4.59998,2470.553,2021-5-12T03:13:18Z
2021-05-12T01:15:11Z,42.805,6.029,13.2984,4.60005,2470.591,2021-5-12T03:16:21Z
2021-05-12T01:18:14Z,42.805,6.029,13.2990,4.60018,2470.577,2021-5-12T03:19:25Z
2021-05-12T01:21:17Z,42.805,6.029,13.2993,4.60003,2470.577,2021-5-12T03:22:28Z
2021-05-12T01:24:20Z,42.805,6.029,13.2990,4.60001,2470.577,2021-5-12T03:25:31Z
2021-05-12T01:27:23Z,42.805,6.029,13.2987,4.60004,2470.553,2021-5-12T03:28:34Z
2021-05-12T01:30:26Z,42.805,6.029,13.2989,4.60004,2470.577,2021-5-12T03:31:37Z
2021-05-12T01:33:29Z,42.805,6.029,13.2990,4.59999,2470.567,2021-5-12T03:34:40Z
2021-05-12T01:36:33Z,42.805,6.029,13.2983,4.60003,2470.591,2021-5-12T03:37:43Z
2021-05-12T01:39:36Z,42.805,6.029,13.2983,4.60001,2470.577,2021-5-12T03:40:46Z
2021-05-12T01:42:39Z,42.805,6.029,13.2985,4.60002,2470.553,2021-5-12T03:43:50Z
2021-05-12T01:45:42Z,42.805,6.029,13.2986,4.60006,2470.567,2021-5-12T03:46:53Z
2021-05-12T01:48:45Z,42.805,6.029,13.2988,4.60003,2470.577,2021-5-12T03:49:56Z
2021-05-12T01:51:48Z,42.805,6.029,13.2986,4.60004,2470.553,2021-5-12T03:52:59Z
2021-05-12T01:54:51Z,42.805,6.029,13.2989,4.60006,2470.553,2021-5-12T03:56:02Z
2021-05-12T01:57:54Z,42.805,6.029,13.2984,4.60003,2470.53,2021-5-12T03:59:05Z
2021-05-12T02:00:57Z,42.805,6.029,13.2990,4.60004,2470.567,2021-5-12T04:02:08Z
2021-05-12T02:04:01Z,42.805,6.029,13.2985,4.60008,2470.553,2021-5-12T04:05:11Z
2021-05-12T02:07:04Z,42.805,6.029,13.2990,4.60014,2470.553,2021-5-12T04:08:14Z
2021-05-12T02:10:07Z,42.805,6.029,13.2985,4.59999,2470.553,2021-5-12T04:11:18Z
2021-05-12T02:13:10Z,42.805,6.029,13.2987,4.60000,2470.553,2021-5-12T04:14:21Z
2021-05-12T02:16:13Z,42.805,6.029,13.2986,4.60004,2470.544,2021-5-12T04:17:24Z
2021-05-12T02:19:16Z,42.805,6.029,13.2993,4.60010,2470.539,2021-5-12T04:20:27Z
2021-05-12T02:22:19Z,42.805,6.029,13.2986,4.60004,2470.6,2021-5-12T04:23:30Z
2021-05-12T02:25:22Z,42.805,6.029,13.2990,4.60009,2470.577,2021-5-12T04:26:33Z
2021-05-12T02:28:26Z,42.805,6.029,13.2990,4.60014,2470.577,2021-5-12T04:29:36Z
2021-05-12T02:31:29Z,42.805,6.029,13.2988,4.60006,2470.567,2021-5-12T04:32:39Z
2021-05-12T02:34:32Z,42.805,6.029,13.2990,4.59998,2470.553,2021-5-12T04:35:43Z
2021-05-12T02:37:35Z,42.805,6.029,13.2992,4.59996,2470.591,2021-5-12T04:38:46Z
2021-05-12T02:40:38Z,42.805,6.029,13.2988,4.60004,2470.577,2021-5-12T04:41:49Z
2021-05-12T02:43:41Z,42.805,6.029,13.2985,4.59999,2470.553,2021-5-12T04:44:52Z
2021-05-12T02:46:44Z,42.805,6.029,13.2989,4.60003,2470.577,2021-5-12T04:47:55Z
2021-05-12T02:49:47Z,42.805,6.029,13.2990,4.60004,2470.553,2021-5-12T04:50:58Z
2021-05-12T02:52:51Z,42.805,6.029,13.2986,4.60003,2470.553,2021-5-12T04:54:01Z
2021-05-12T02:55:54Z,42.805,6.029,13.2988,4.60008,2470.53,2021-5-12T04:57:04Z
2021-05-12T02:58:57Z,42.805,6.029,13.2989,4.60009,2470.591,2021-5-12T05:00:08Z
2021-05-12T03:02:00Z,42.805,6.029,13.2982,4.59996,2470.567,2021-5-12T05:03:11Z
2021-05-12T03:05:03Z,42.805,6.029,13.2991,4.60009,2470.516,2021-5-12T05:06:14Z
2021-05-12T03:08:06Z,42.805,6.029,13.2991,4.60003,2470.577,2021-5-12T05:09:17Z
2021-05-12T03:11:09Z,42.805,6.029,13.2990,4.60004,2470.553,2021-5-12T05:12:20Z
2021-05-12T03:14:12Z,42.805,6.029,13.2987,4.60005,2470.553,2021-5-12T05:15:23Z
2021-05-12T03:17:16Z,42.805,6.029,13.2988,4.59999,2470.577,2021-5-12T05:18:26Z
2021-05-12T03:20:19Z,42.805,6.029,13.2995,4.60004,2470.553,2021-5-12T05:21:29Z
2021-05-12T03:23:22Z,42.805,6.029,13.2985,4.60000,2470.567,2021-5-12T05:24:33Z
2021-05-12T03:26:25Z,42.805,6.029,13.2991,4.60003,2470.577,2021-5-12T05:27:36Z
2021-05-12T03:29:28Z,42.805,6.029,13.2986,4.60007,2470.577,2021-5-12T05:30:39Z
2021-05-12T03:32:31Z,42.805,6.029,13.2985,4.60006,2470.6,2021-5-12T05:33:42Z
2021-05-12T03:35:34Z,42.805,6.029,13.2986,4.60008,2470.577,2021-5-12T05:36:45Z
2021-05-12T03:38:37Z,42.805,6.029,13.2988,4.59996,2470.53,2021-5-12T05:39:48Z
2021-05-12T03:41:41Z,42.805,6.029,13.2986,4.60002,2470.577,2021-5-12T05:42:51Z
2021-05-12T03:44:44Z,42.805,6.029,13.2993,4.60003,2470.6,2021-5-12T05:45:54Z
2021-05-12T03:47:47Z,42.805,6.029,13.2986,4.60009,2470.6,2021-5-12T05:48:58Z
2021-05-12T03:50:50Z,42.805,6.029,13.2988,4.60012,2470.6,2021-5-12T05:52:01Z
2021-05-12T03:53:53Z,42.805,6.029,13.2986,4.60007,2470.591,2021-5-12T05:55:04Z
2021-05-12T03:56:56Z,42.805,6.029,13.2991,4.60003,2470.614,2021-5-12T05:58:07Z
2021-05-12T03:59:59Z,42.805,6.029,13.2988,4.60001,2470.591,2021-5-12T06:01:10Z
2021-05-12T04:03:02Z,42.805,6.029,13.2986,4.60000,2470.614,2021-5-12T06:04:13Z
2021-05-12T04:06:06Z,42.805,6.029,13.2986,4.60009,2470.577,2021-5-12T06:07:16Z
2021-05-12T04:09:09Z,42.805,6.029,13.2985,4.60000,2470.591,2021-5-12T06:10:19Z
2021-05-12T04:12:12Z,42.805,6.029,13.2988,4.60007,2470.614,2021-5-12T06:13:23Z
2021-05-12T04:15:15Z,42.805,6.029,13.2985,4.60001,2470.6,2021-5-12T06:16:26Z
2021-05-12T04:18:18Z,42.805,6.029,13.2985,4.60005,2470.6,2021-5-12T06:19:29Z
2021-05-12T04:21:21Z,42.805,6.029,13.2986,4.60001,2470.614,2021-5-12T06:22:32Z
2021-05-12T04:24:24Z,42.805,6.029,13.2994,4.60009,2470.6,2021-5-12T06:25:35Z
2021-05-12T04:27:27Z,42.805,6.029,13.2983,4.60003,2470.563,2021-5-12T06:28:38Z
2021-05-12T04:30:31Z,42.805,6.029,13.2990,4.59996,2470.637,2021-5-12T06:31:41Z
2021-05-12T04:33:34Z,42.805,6.029,13.2989,4.60011,2470.6,2021-5-12T06:34:44Z
2021-05-12T04:36:37Z,42.805,6.029,13.2983,4.59999,2470.577,2021-5-12T06:37:48Z
2021-05-12T04:39:40Z,42.805,6.029,13.2986,4.60001,2470.624,2021-5-12T06:40:51Z
2021-05-12T04:42:43Z,42.805,6.029,13.2988,4.60005,2470.684,2021-5-12T06:43:54Z
2021-05-12T04:45:46Z,42.805,6.029,13.2992,4.60009,2470.637,2021-5-12T06:46:57Z
2021-05-12T04:48:49Z,42.805,6.029,13.2990,4.60003,2470.6,2021-5-12T06:50:00Z
2021-05-12T04:51:52Z,42.805,6.029,13.2984,4.60006,2470.614,2021-5-12T06:53:03Z
2021-05-12T04:54:56Z,42.805,6.029,13.2996,4.59999,2470.614,2021-5-12T06:56:06Z
2021-05-12T04:57:59Z,42.805,6.029,13.2985,4.60003,2470.637,2021-5-12T06:59:09Z
2021-05-12T05:01:02Z,42.805,6.029,13.2987,4.60002,2470.624,2021-5-12T07:02:13Z
2021-05-12T05:04:05Z,42.805,6.029,13.2988,4.60002,2470.637,2021-5-12T07:05:16Z
2021-05-12T05:07:08Z,42.805,6.029,13.2987,4.60005,2470.684,2021-5-12T07:08:19Z
2021-05-12T05:10:11Z,42.805,6.029,13.2991,4.60006,2470.661,2021-5-12T07:11:22Z
2021-05-12T05:13:14Z,42.805,6.029,13.2986,4.60006,2470.661,2021-5-12T07:14:25Z
2021-05-12T05:16:17Z,42.805,6.029,13.2983,4.59996,2470.67,2021-5-12T07:17:28Z
2021-05-12T05:19:20Z,42.805,6.029,13.2993,4.60000,2470.637,2021-5-12T07:20:31Z
2021-05-12T05:22:24Z,42.805,6.029,13.2988,4.60009,2470.661,2021-5-12T07:23:34Z
2021-05-12T05:25:27Z,42.805,6.029,13.2986,4.60003,2470.684,2021-5-12T07:26:37Z
2021-05-12T05:28:30Z,42.805,6.029,13.2991,4.60001,2470.67,2021-5-12T07:29:41Z
2021-05-12T05:31:33Z,42.805,6.029,13.2988,4.60002,2470.624,2021-5-12T07:32:44Z
2021-05-12T05:34:36Z,42.805,6.029,13.2986,4.60001,2470.67,2021-5-12T07:35:47Z
2021-05-12T05:37:39Z,42.805,6.029,13.2989,4.60000,2470.646,2021-5-12T07:38:50Z
2021-05-12T05:40:42Z,42.805,6.029,13.2990,4.60006,2470.646,2021-5-12T07:41:53Z
2021-05-12T05:43:45Z,42.805,6.029,13.2984,4.60000,2470.646,2021-5-12T07:44:56Z
2021-05-12T05:46:49Z,42.805,6.029,13.2986,4.60006,2470.646,2021-5-12T07:47:59Z
2021-05-12T05:49:52Z,42.805,6.029,13.2990,4.60005,2470.67,2021-5-12T07:51:03Z
2021-05-12T05:52:55Z,42.805,6.029,13.2983,4.60001,2470.646,2021-5-12T07:54:06Z
2021-05-12T05:55:58Z,42.805,6.029,13.2988,4.60000,2470.707,2021-5-12T07:57:09Z
2021-05-12T05:59:01Z,42.805,6.029,13.2987,4.59999,2470.684,2021-5-12T08:00:12Z
2021-05-12T06:02:04Z,42.805,6.029,13.2993,4.60006,2470.67,2021-5-12T08:03:15Z
2021-05-12T06:05:07Z,42.805,6.029,13.2990,4.60010,2470.684,2021-5-12T08:06:18Z
2021-05-12T06:08:10Z,42.805,6.029,13.2989,4.60005,2470.707,2021-5-12T08:09:21Z
2021-05-12T06:11:14Z,42.805,6.029,13.2984,4.60001,2470.684,2021-5-12T08:12:24Z
2021-05-12T06:14:17Z,42.805,6.029,13.2981,4.59997,2470.684,2021-5-12T08:15:27Z
2021-05-12T06:17:20Z,42.805,6.029,13.2986,4.59999,2470.693,2021-5-12T08:18:31Z
2021-05-12T06:20:23Z,42.805,6.029,13.2986,4.60004,2470.707,2021-5-12T08:21:34Z
2021-05-12T06:23:26Z,42.805,6.029,13.2990,4.60009,2470.717,2021-5-12T08:24:37Z
2021-05-12T06:26:29Z,42.805,6.029,13.2986,4.60006,2470.646,2021-5-12T08:27:40Z
2021-05-12T06:29:32Z,42.805,6.029,13.2986,4.60006,2470.693,2021-5-12T08:30:43Z
2021-05-12T06:32:35Z,42.805,6.029,13.2986,4.60003,2470.67,2021-5-12T08:33:46Z
2021-05-12T06:35:39Z,42.805,6.029,13.2984,4.60001,2470.707,2021-5-12T08:36:49Z
2021-05-12T06:38:42Z,42.805,6.029,13.2986,4.60001,2470.67,2021-5-12T08:39:52Z
2021-05-12T06:41:45Z,42.805,6.029,13.2987,4.60001,2470.707,2021-5-12T08:42:56Z
2021-05-12T06:44:48Z,42.805,6.029,13.2986,4.60001,2470.74,2021-5-12T08:45:59Z
2021-05-12T06:47:51Z,42.805,6.029,13.2991,4.60007,2470.754,2021-5-12T08:49:02Z
2021-05-12T06:50:54Z,42.805,6.029,13.2987,4.59997,2470.684,2021-5-12T08:52:05Z
2021-05-12T06:53:57Z,42.805,6.029,13.2986,4.60005,2470.67,2021-5-12T08:55:08Z
2021-05-12T06:57:00Z,42.805,6.029,13.2984,4.59999,2470.693,2021-5-12T08:58:11Z
2021-05-12T07:00:04Z,42.805,6.029,13.2986,4.60005,2470.67,2021-5-12T09:01:14Z
2021-05-12T07:03:07Z,42.805,6.029,13.2990,4.60009,2470.693,2021-5-12T09:04:17Z
2021-05-12T07:06:10Z,42.805,6.029,13.2987,4.59996,2470.707,2021-5-12T09:07:21Z
2021-05-12T07:09:13Z,42.805,6.029,13.2990,4.60003,2470.73,2021-5-12T09:10:24Z
2021-05-12T07:12:16Z,42.805,6.029,13.2987,4.60004,2470.693,2021-5-12T09:13:27Z
2021-05-12T07:15:19Z,42.805,6.029,13.2990,4.60011,2470.73,2021-5-12T09:16:30Z
2021-05-12T07:18:22Z,42.805,6.029,13.2986,4.60003,2470.754,2021-5-12T09:19:33Z
2021-05-12T07:21:25Z,42.805,6.029,13.2983,4.60001,2470.707,2021-5-12T09:22:36Z
2021-05-12T07:24:29Z,42.805,6.029,13.2985,4.59998,2470.717,2021-5-12T09:25:39Z
2021-05-12T07:27:32Z,42.805,6.029,13.2984,4.60002,2470.707,2021-5-12T09:28:42Z
2021-05-12T07:30:35Z,42.805,6.029,13.2983,4.60006,2470.717,2021-5-12T09:31:46Z
2021-05-12T07:33:38Z,42.805,6.029,13.2986,4.60011,2470.73,2021-5-12T09:34:49Z
2021-05-12T07:36:41Z,42.805,6.029,13.2985,4.60000,2470.679,2021-5-12T09:37:52Z
2021-05-12T07:39:44Z,42.805,6.029,13.2986,4.60001,2470.717,2021-5-12T09:40:55Z
2021-05-12T07:42:47Z,42.805,6.029,13.2986,4.60001,2470.717,2021-5-12T09:43:58Z
2021-05-12T07:45:50Z,42.805,6.029,13.2983,4.60002,2470.717,2021-5-12T09:47:01Z
2021-05-12T07:48:54Z,42.805,6.029,13.2986,4.60006,2470.707,2021-5-12T09:50:04Z
2021-05-12T07:51:57Z,42.805,6.029,13.2986,4.60003,2470.693,2021-5-12T09:53:07Z
2021-05-12T07:55:00Z,42.805,6.029,13.2988,4.60002,2470.717,2021-5-12T09:56:11Z
2021-05-12T07:58:03Z,42.805,6.029,13.2985,4.60002,2470.74,2021-5-12T09:59:14Z
2021-05-12T08:01:06Z,42.805,6.029,13.2985,4.59996,2470.777,2021-5-12T10:02:17Z
2021-05-12T08:04:09Z,42.805,6.029,13.2982,4.59995,2470.693,2021-5-12T10:05:20Z
2021-05-12T08:07:12Z,42.805,6.029,13.2987,4.60005,2470.693,2021-5-12T10:08:23Z
2021-05-12T08:10:15Z,42.805,6.029,13.2985,4.59999,2470.717,2021-5-12T10:11:26Z
2021-05-12T08:13:19Z,42.805,6.029,13.2987,4.59994,2470.717,2021-5-12T10:14:29Z
2021-05-12T08:16:22Z,42.805,6.029,13.2987,4.60000,2470.717,2021-5-12T10:17:32Z
2021-05-12T08:19:25Z,42.805,6.029,13.2992,4.60009,2470.693,2021-5-12T10:20:36Z
2021-05-12T08:22:28Z,42.805,6.029,13.2989,4.60001,2470.693,2021-5-12T10:23:39Z
2021-05-12T08:25:31Z,42.805,6.029,13.2986,4.59999,2470.646,2021-5-12T10:26:42Z
2021-05-12T08:28:34Z,42.805,6.029,13.2987,4.59999,2470.684,2021-5-12T10:29:45Z
2021-05-12T08:31:37Z,42.805,6.029,13.2984,4.60003,2470.67,2021-5-12T10:32:48Z
2021-05-12T08:34:40Z,42.805,6.029,13.2987,4.60005,2470.707,2021-5-12T10:35:51Z
2021-05-12T08:37:44Z,42.805,6.029,13.2989,4.60000,2470.646,2021-5-12T10:38:54Z
2021-05-12T08:40:47Z,42.805,6.029,13.2985,4.60002,2470.67,2021-5-12T10:41:57Z
2021-05-12T08:43:50Z,42.805,6.029,13.2987,4.60009,2470.679,2021-5-12T10:45:01Z
2021-05-12T08:46:53Z,42.805,6.029,13.2989,4.60011,2470.693,2021-5-12T10:48:04Z
2021-05-12T08:49:56Z,42.805,6.029,13.2990,4.60003,2470.67,2021-5-12T10:51:07Z
2021-05-12T08:52:59Z,42.805,6.029,13.2985,4.60006,2470.693,2021-5-12T10:54:10Z
2021-05-12T08:56:02Z,42.805,6.029,13.2989,4.60001,2470.646,2021-5-12T10:57:13Z
2021-05-12T08:59:05Z,42.805,6.029,13.2983,4.60003,2470.67,2021-5-12T11:00:16Z
2021-05-12T09:02:09Z,42.805,6.029,13.2984,4.59996,2470.707,2021-5-12T11:03:19Z
2021-05-12T09:05:12Z,42.805,6.029,13.2986,4.60002,2470.67,2021-5-12T11:06:22Z
2021-05-12T09:08:15Z,42.805,6.029,13.2990,4.60006,2470.684,2021-5-12T11:09:26Z
2021-05-12T09:11:18Z,42.805,6.029,13.2990,4.60004,2470.646,2021-5-12T11:12:29Z
2021-05-12T09:14:21Z,42.805,6.029,13.2989,4.60006,2470.661,2021-5-12T11:15:32Z
2021-05-12T09:17:24Z,42.805,6.029,13.2990,4.60002,2470.684,2021-5-12T11:18:35Z
2021-05-12T09:20:27Z,42.805,6.029,13.2987,4.60001,2470.67,2021-5-12T11:21:38Z
2021-05-12T09:23:30Z,42.805,6.029,13.2986,4.60003,2470.624,2021-5-12T11:24:41Z
2021-05-12T09:26:34Z,42.805,6.029,13.2988,4.60004,2470.646,2021-5-12T11:27:44Z
2021-05-12T09:29:37Z,42.805,6.029,13.2983,4.60001,2470.6,2021-5-12T11:30:47Z
2021-05-12T09:32:40Z,42.805,6.029,13.2983,4.60001,2470.646,2021-5-12T11:33:51Z
2021-05-12T09:35:43Z,42.805,6.029,13.2986,4.60003,2470.684,2021-5-12T11:36:54Z
2021-05-12T09:38:46Z,42.805,6.029,13.2986,4.59999,2470.624,2021-5-12T11:39:57Z
2021-05-12T09:41:49Z,42.805,6.029,13.2990,4.60012,2470.684,2021-5-12T11:43:00Z
2021-05-12T09:44:52Z,42.805,6.029,13.2989,4.59997,2470.646,2021-5-12T11:46:03Z
2021-05-12T09:47:55Z,42.805,6.029,13.2991,4.60002,2470.637,2021-5-12T11:49:06Z
2021-05-12T09:50:59Z,42.805,6.029,13.2985,4.59995,2470.637,2021-5-12T11:52:09Z
2021-05-12T09:54:02Z,42.805,6.029,13.2986,4.60001,2470.646,2021-5-12T11:55:13Z
2021-05-12T09:57:05Z,42.805,6.029,13.2986,4.60003,2470.646,2021-5-12T11:58:16Z
2021-05-12T10:00:08Z,42.805,6.029,13.2986,4.60001,2470.6,2021-5-12T12:01:19Z
2021-05-12T10:03:11Z,42.805,6.029,13.2991,4.60001,2470.661,2021-5-12T12:04:22Z
2021-05-12T10:06:14Z,42.805,6.029,13.2987,4.60013,2470.646,2021-5-12T12:07:25Z
2021-05-12T10:09:17Z,42.805,6.029,13.2993,4.60011,2470.6,2021-5-12T12:10:28Z
2021-05-12T10:12:21Z,42.805,6.029,13.2985,4.60009,2470.637,2021-5-12T12:13:31Z
2021-05-12T10:15:24Z,42.805,6.029,13.2985,4.60004,2470.614,2021-5-12T12:16:34Z
2021-05-12T10:18:27Z,42.805,6.029,13.2987,4.60010,2470.637,2021-5-12T12:19:38Z
2021-05-12T10:21:30Z,42.805,6.029,13.2991,4.60004,2470.624,2021-5-12T12:22:41Z
2021-05-12T10:24:33Z,42.805,6.029,13.2987,4.60000,2470.614,2021-5-12T12:25:44Z
2021-05-12T10:27:36Z,42.805,6.029,13.2990,4.60001,2470.661,2021-5-12T12:28:47Z
2021-05-12T10:30:39Z,42.805,6.029,13.2991,4.60011,2470.591,2021-5-12T12:31:50Z
2021-05-12T10:33:42Z,42.805,6.029,13.2988,4.60007,2470.577,2021-5-12T12:34:53Z
2021-05-12T10:36:46Z,42.805,6.029,13.2984,4.60001,2470.577,2021-5-12T12:37:56Z
2021-05-12T10:39:49Z,42.805,6.029,13.2986,4.60000,2470.6,2021-5-12T12:40:59Z
2021-05-12T10:42:52Z,42.805,6.029,13.2988,4.60002,2470.6,2021-5-12T12:44:03Z
2021-05-12T10:45:55Z,42.805,6.029,13.2987,4.60008,2470.591,2021-5-12T12:47:06Z
2021-05-12T10:48:58Z,42.805,6.029,13.2994,4.60005,2470.553,2021-5-12T12:50:09Z
2021-05-12T10:52:01Z,42.805,6.029,13.2987,4.59998,2470.614,2021-5-12T12:53:12Z
2021-05-12T10:55:04Z,42.805,6.029,13.2993,4.60004,2470.577,2021-5-12T12:56:15Z
2021-05-12T10:58:07Z,42.805,6.029,13.2990,4.60008,2470.577,2021-5-12T12:59:18Z
2021-05-12T11:01:11Z,42.805,6.029,13.2987,4.60008,2470.553,2021-5-12T13:02:21Z
2021-05-12T11:04:14Z,42.805,6.029,13.2994,4.59994,2470.577,2021-5-12T13:05:24Z
2021-05-12T11:07:17Z,42.805,6.029,13.2987,4.59998,2470.553,2021-5-12T13:08:28Z
2021-05-12T11:10:20Z,42.805,6.029,13.2983,4.60001,2470.553,2021-5-12T13:11:31Z
2021-05-12T11:13:23Z,42.805,6.029,13.2989,4.60004,2470.567,2021-5-12T13:14:34Z
2021-05-12T11:16:26Z,42.805,6.029,13.2985,4.60002,2470.553,2021-5-12T13:17:37Z
2021-05-12T11:19:29Z,42.805,6.029,13.2988,4.60007,2470.53,2021-5-12T13:20:40Z
2021-05-12T11:22:32Z,42.805,6.029,13.2988,4.59999,2470.553,2021-5-12T13:23:43Z
2021-05-12T11:25:36Z,42.805,6.029,13.2989,4.60000,2470.539,2021-5-12T13:26:46Z
2021-05-12T11:28:39Z,42.805,6.029,13.2989,4.59998,2470.577,2021-5-12T13:29:49Z
2021-05-12T11:31:42Z,42.805,6.029,13.2984,4.59999,2470.567,2021-5-12T13:32:53Z
2021-05-12T11:34:45Z,42.805,6.029,13.2984,4.59994,2470.591,2021-5-12T13:35:56Z
2021-05-12T11:37:48Z,42.805,6.029,13.2993,4.60011,2470.507,2021-5-12T13:38:59Z
2021-05-12T11:40:51Z,42.805,6.029,13.2984,4.59999,2470.577,2021-5-12T13:42:02Z
2021-05-12T11:43:54Z,42.805,6.029,13.2990,4.60006,2470.591,2021-5-12T13:45:05Z
2021-05-12T11:46:57Z,42.805,6.029,13.2984,4.60003,2470.544,2021-5-12T13:48:08Z
2021-05-12T11:50:01Z,42.805,6.029,13.2993,4.59996,2470.53,2021-5-12T13:51:11Z
2021-05-12T11:53:04Z,42.805,6.029,13.2986,4.59999,2470.507,2021-5-12T13:54:15Z
2021-05-12T11:56:07Z,42.805,6.029,13.2988,4.60003,2470.553,2021-5-12T13:57:18Z
2021-05-12T11:59:10Z,42.805,6.029,13.2982,4.60000,2470.553,2021-5-12T14:00:21Z
2021-05-12T12:02:13Z,42.805,6.029,13.2987,4.60006,2470.53,2021-5-12T14:03:24Z
2021-05-12T12:05:16Z,42.805,6.029,13.2990,4.60007,2470.553,2021-5-12T14:06:27Z
2021-05-12T12:08:19Z,42.805,6.029,13.2986,4.60002,2470.53,2021-5-12T14:09:30Z
2021-05-12T12:11:22Z,42.805,6.029,13.2987,4.59999,2470.52,2021-5-12T14:12:33Z
2021-05-12T12:14:26Z,42.805,6.029,13.2988,4.60006,2470.553,2021-5-12T14:15:36Z
2021-05-12T12:17:29Z,42.805,6.029,13.2983,4.60000,2470.53,2021-5-12T14:18:40Z
2021-05-12T12:20:32Z,42.805,6.029,13.2985,4.60006,2470.553,2021-5-12T14:21:43Z
2021-05-12T12:23:35Z,42.805,6.029,13.2990,4.60002,2470.53,2021-5-12T14:24:46Z
2021-05-12T12:26:38Z,42.805,6.029,13.2986,4.60004,2470.544,2021-5-12T14:27:49Z
2021-05-12T12:29:41Z,42.805,6.029,13.2996,4.60002,2470.553,2021-5-12T14:30:52Z
2021-05-12T12:32:44Z,42.805,6.029,13.2989,4.60006,2470.53,2021-5-12T14:33:55Z
2021-05-12T12:35:47Z,42.805,6.029,13.2990,4.60002,2470.53,2021-5-12T14:36:58Z
2021-05-12T12:38:51Z,42.805,6.029,13.2986,4.60003,2470.53,2021-5-12T14:40:01Z
2021-05-12T12:41:54Z,42.805,6.029,13.2986,4.59999,2470.53,2021-5-12T14:43:05Z
2021-05-12T12:44:57Z,42.805,6.029,13.2986,4.59993,2470.53,2021-5-12T14:46:08Z
2021-05-12T12:48:00Z,42.805,6.029,13.2993,4.60002,2470.553,2021-5-12T14:49:11Z
2021-05-12T12:51:03Z,42.805,6.029,13.2991,4.60001,2470.53,2021-5-12T14:52:14Z
2021-05-12T12:54:06Z,42.805,6.029,13.2992,4.60001,2470.52,2021-5-12T14:55:17Z
2021-05-12T12:57:09Z,42.805,6.029,13.2987,4.59992,2470.53,2021-5-12T14:58:20Z
2021-05-12T13:00:13Z,42.805,6.029,13.2984,4.60001,2470.544,2021-5-12T15:01:23Z
2021-05-12T13:03:16Z,42.805,6.029,13.2986,4.60005,2470.507,2021-5-12T15:04:26Z
2021-05-12T13:06:19Z,42.805,6.029,13.2991,4.59999,2470.483,2021-5-12T15:07:30Z
2021-05-12T13:09:22Z,42.805,6.029,13.2991,4.60006,2470.497,2021-5-12T15:10:33Z
2021-05-12T13:12:25Z,42.805,6.029,13.2991,4.60009,2470.53,2021-5-12T15:13:36Z
2021-05-12T13:15:28Z,42.805,6.029,13.2990,4.60003,2470.52,2021-5-12T15:16:39Z
2021-05-12T13:18:31Z,42.805,6.029,13.2986,4.60003,2470.544,2021-5-12T15:19:42Z
2021-05-12T13:21:34Z,42.805,6.029,13.2990,4.59996,2470.53,2021-5-12T15:22:45Z
2021-05-12T13:24:38Z,42.805,6.029,13.2987,4.60008,2470.53,2021-5-12T15:25:48Z
2021-05-12T13:27:41Z,42.805,6.029,13.2990,4.60002,2470.53,2021-5-12T15:28:51Z
2021-05-12T13:30:44Z,42.805,6.029,13.2986,4.59996,2470.567,2021-5-12T15:31:55Z
2021-05-12T13:33:47Z,42.805,6.029,13.2986,4.60004,2470.553,2021-5-12T15:34:58Z
2021-05-12T13:36:50Z,42.805,6.029,13.2986,4.60001,2470.507,2021-5-12T15:38:01Z
2021-05-12T13:39:53Z,42.805,6.029,13.2990,4.59996,2470.507,2021-5-12T15:41:04Z
2021-05-12T13:42:56Z,42.805,6.029,13.2985,4.59996,2470.53,2021-5-12T15:44:07Z
2021-05-12T13:45:59Z,42.805,6.029,13.2988,4.60001,2470.507,2021-5-12T15:47:10Z
2021-05-12T13:49:03Z,42.805,6.029,13.2985,4.60000,2470.507,2021-5-12T15:50:13Z
2021-05-12T13:52:06Z,42.805,6.029,13.2979,4.59999,2470.567,2021-5-12T15:53:17Z
2021-05-12T13:55:09Z,42.805,6.029,13.2986,4.59999,2470.53,2021-5-12T15:56:20Z
2021-05-12T13:58:12Z,42.805,6.029,13.2986,4.60005,2470.507,2021-5-12T15:59:23Z
2021-05-12T14:01:15Z,42.805,6.029,13.2986,4.60009,2470.483,2021-5-12T16:02:26Z
2021-05-12T14:04:18Z,42.805,6.029,13.2986,4.60004,2470.507,2021-5-12T16:05:29Z
2021-05-12T14:07:21Z,42.805,6.029,13.2987,4.60001,2470.52,2021-5-12T16:08:32Z
2021-05-12T14:10:24Z,42.805,6.029,13.2987,4.59998,2470.507,2021-5-12T16:11:35Z
2021-05-12T14:13:28Z,42.805,6.029,13.2989,4.59993,2470.53,2021-5-12T16:14:38Z
2021-05-12T14:16:31Z,42.805,6.029,13.2990,4.59992,2470.544,2021-5-12T16:17:41Z
2021-05-12T14:19:34Z,42.805,6.029,13.2989,4.59999,2470.544,2021-5-12T16:20:45Z
2021-05-12T14:22:37Z,42.805,6.029,13.2986,4.60004,2470.52,2021-5-12T16:23:48Z
2021-05-12T14:25:40Z,42.805,6.029,13.2987,4.60000,2470.507,2021-5-12T16:26:51Z
2021-05-12T14:28:43Z,42.805,6.029,13.2990,4.59996,2470.52,2021-5-12T16:29:54Z
2021-05-12T14:31:46Z,42.805,6.029,13.2987,4.60007,2470.507,2021-5-12T16:32:57Z
2021-05-12T14:34:49Z,42.805,6.029,13.2982,4.60004,2470.507,2021-5-12T16:36:00Z
2021-05-12T14:37:53Z,42.805,6.029,13.2991,4.59998,2470.507,2021-5-12T16:39:03Z
2021-05-12T14:40:56Z,42.805,6.029,13.2989,4.59996,2470.544,2021-5-12T16:42:07Z
2021-05-12T14:43:59Z,42.805,6.029,13.2984,4.59996,2470.53,2021-5-12T16:45:10Z
2021-05-12T14:47:02Z,42.805,6.029,13.2983,4.60001,2470.53,2021-5-12T16:48:13Z
2021-05-12T14:50:05Z,42.805,6.029,13.2989,4.60008,2470.53,2021-5-12T16:51:16Z
2021-05-12T14:53:08Z,42.805,6.029,13.2986,4.60003,2470.53,2021-5-12T16:54:19Z
2021-05-12T14:56:11Z,42.805,6.029,13.2983,4.60001,2470.507,2021-5-12T16:57:22Z
2021-05-12T14:59:14Z,42.805,6.029,13.2991,4.59997,2470.577,2021-5-12T17:00:25Z
2021-05-12T15:02:18Z,42.805,6.029,13.2987,4.60001,2470.544,2021-5-12T17:03:28Z
2021-05-12T15:05:21Z,42.805,6.029,13.2983,4.60001,2470.53,2021-5-12T17:06:32Z
2021-05-12T15:08:24Z,42.805,6.029,13.2985,4.59998,2470.53,2021-5-12T17:09:35Z
2021-05-12T15:11:27Z,42.805,6.029,13.2983,4.59993,2470.553,2021-5-12T17:12:38Z
2021-05-12T15:14:30Z,42.805,6.029,13.2986,4.60003,2470.567,2021-5-12T17:15:41Z